map of DMM home
Great Circle Mapper logo
DMM - Airport
Location
City:  Dammam, Saudi Arabia
Name:King Fahd International Airport
ICAO / IATA:OEDF / DMM

Details
Type:Airport (Aerodrome, Airfield)
Use:Public/Civil, International (customs port of entry)
Latitude:2628'16"N (26.471161)
Longitude:4947'52"E (49.797890)
Datum:WGS 1984
Elevation:72 ft (22 m)
Variation:2.8E (WMM2015 magnetic declination)
Runways:2
Longest:13124 × 197 ft (4000 × 60 m), paved

Time
Time Zone:UTC+3
Local Time:

Weather
METAR:OEDF 210800Z 20016KT CAVOK 23/04 Q1015 NOSIG
TAF:OEDF 210200Z 2106/2212 22010KT CAVOK
BECMG 2215/2218 33013KT

Related Locations
Nearby:
Farthest:GMR: 12065 mi / 19416 km
Mangareva [Totegegie], Gambier Islands, PF

Find:

   beyond  
but within

Other Information
Maps:
NOTAMs:
Links:
Sources:

  
flag of Saudi Arabia   

Sectional Chart

Flight Planning
at skyvector.com

Satellite Image

Google Maps Satellite View

 

Copyright © 2004-2014 Karl L. Swartz. All rights reserved.
The Great Circle Mapper name and logo are trademarks of the Great Circle Mapper.
All other trademarks mentioned herein belong to their respective owners.
Please see credits for attibutions and further copyright information.

  Follow gcmap on Facebook Follow gcmap on Twitter

hCard Microformat

Geo Microformat